Location: �mondeville
(49.4591°N, 1.3431°W)
Time: 20:41:26
(UTC+00:00)

USA 234 - Pass Details

Date: 22 October 2019
Orbit: 1102 x 1106 km, 123.0° (Epoch: 12 November)

Event Time Altitude Azimuth Distance (km) Brightness Sun altitude
Rises 03:33:24 0° 119° (ESE) 3,913 6.7 -30.1°
Reaches altitude 10° 03:35:52 10° 119° (ESE) 2,957 6.0 -29.8°
Maximum altitude 03:42:25 87° 32° (NNE) 1,109 3.1 -28.8°
Enters shadow 03:43:48 60° 306° (NW) 1,254 3.3 -28.5°
